| time (UTC) | temp F | wind direction | speed MPH | gust MPH | rain 1hr in | rain 24hr in | rain mn in | humidity % | barometer mb |
| 20260506071155 | 52 | 43 | 1.0 | 2.0 | 0.00 | 0.00 | 0.00 | 87 | 1007.1 |
| 20260506070652 | 52 | 6 | 2.0 | 3.0 | 0.00 | 0.00 | 0.00 | 87 | 1007.1 |
| 20260506070148 | 52 | 11 | 2.0 | 2.0 | 0.00 | 0.00 | 0.00 | 87 | 1007.5 |
| 20260506062126 | 52 | 284 | 0.0 | 0.0 | 0.00 | 0.00 | 0.00 | 88 | 1008.0 |
| 20260506061621 | 51 | 54 | 2.0 | 2.0 | 0.00 | 0.00 | 0.00 | 88 | 1007.9 |
| 20260506061120 | 51 | 39 | 2.0 | 2.0 | 0.00 | 0.00 | 0.00 | 88 | 1007.7 |
| 20260506060618 | 51 | 276 | 0.0 | 0.0 | 0.00 | 0.00 | 0.00 | 88 | 1008.1 |
| 20260506060114 | 51 | 299 | 0.0 | 1.0 | 0.00 | 0.00 | 0.00 | 88 | 1008.2 |
| 20260506051046 | 52 | 298 | 0.0 | 0.0 | 0.00 | 0.00 | 0.00 | 86 | 1008.7 |
| 20260506050544 | 53 | 148 | 1.0 | 2.0 | 0.00 | 0.00 | 0.00 | 85 | 1009.2 |
| 20260506045035 | 53 | 359 | 2.0 | 3.0 | 0.00 | 0.00 | 0.00 | 83 | 1009.2 |
| 20260506044533 | 53 | 318 | 1.0 | 1.0 | 0.00 | 0.00 | 0.00 | 84 | 1009.1 |
| 20260506044029 | 53 | 312 | 1.0 | 1.0 | 0.00 | 0.00 | 0.00 | 83 | 1008.8 |
| 20260506043526 | 53 | 27 | 1.0 | 1.0 | 0.00 | 0.00 | 0.00 | 83 | 1008.7 |
| 20260506043025 | 53 | 67 | 1.0 | 1.0 | 0.00 | 0.00 | 0.00 | 83 | 1008.6 |
| 20260506042523 | 53 | 75 | 1.0 | 1.0 | 0.00 | 0.00 | 0.00 | 83 | 1008.9 |
| 20260506042021 | 53 | 50 | 1.0 | 2.0 | 0.00 | 0.00 | 0.00 | 83 | 1008.8 |
| 20260506041520 | 54 | 50 | 1.0 | 1.0 | 0.00 | 0.00 | 0.00 | 82 | 1009.1 |
| 20260506041016 | 54 | 110 | 1.0 | 2.0 | 0.00 | 0.00 | 0.00 | 82 | 1008.9 |
| 20260506040514 | 54 | 58 | 1.0 | 1.0 | 0.00 | 0.00 | 0.00 | 81 | 1008.9 |
| 20260506040009 | 54 | 49 | 1.0 | 2.0 | 0.00 | 0.02 | 0.02 | 80 | 1009.3 |
| 20260506035507 | 54 | 18 | 1.0 | 2.0 | 0.00 | 0.02 | 0.02 | 80 | 1009.4 |
| 20260506035003 | 55 | 59 | 1.0 | 2.0 | 0.00 | 0.02 | 0.02 | 80 | 1009.3 |
| 20260506034501 | 55 | 44 | 1.0 | 2.0 | 0.00 | 0.02 | 0.02 | 80 | 1009.3 |
| 20260506033957 | 55 | 333 | 2.0 | 2.0 | 0.00 | 0.02 | 0.02 | 80 | 1009.3 |
| 20260506033455 | 55 | 322 | 1.0 | 1.0 | 0.00 | 0.02 | 0.02 | 80 | 1009.4 |
| 20260506032951 | 55 | 18 | 2.0 | 2.0 | 0.00 | 0.02 | 0.02 | 80 | 1009.1 |
| 20260506032449 | 55 | 7 | 1.0 | 2.0 | 0.00 | 0.02 | 0.02 | 80 | 1009.2 |
| 20260506031945 | 55 | 47 | 3.0 | 3.0 | 0.00 | 0.02 | 0.02 | 80 | 1009.2 |
| 20260506031443 | 56 | 342 | 1.0 | 1.0 | 0.00 | 0.02 | 0.02 | 79 | 1009.4 |
| 20260506030940 | 56 | 324 | 3.0 | 3.0 | 0.00 | 0.02 | 0.02 | 79 | 1009.4 |
| 20260506030438 | 56 | 17 | 1.0 | 2.0 | 0.00 | 0.02 | 0.02 | 78 | 1009.3 |
| 20260506025934 | 56 | 348 | 3.0 | 3.0 | 0.00 | 0.02 | 0.02 | 77 | 1009.4 |
| 20260506025432 | 57 | 353 | 3.0 | 3.0 | 0.00 | 0.02 | 0.02 | 76 | 1009.4 |
| 20260506024928 | 57 | 331 | 3.0 | 3.0 | 0.00 | 0.02 | 0.02 | 76 | 1009.5 |
| 20260506024425 | 57 | 283 | 1.0 | 2.0 | 0.00 | 0.02 | 0.02 | 76 | 1009.6 |
| 20260506023921 | 57 | 340 | 2.0 | 3.0 | 0.00 | 0.02 | 0.02 | 78 | 1009.5 |
| 20260506023418 | 57 | 9 | 2.0 | 3.0 | 0.00 | 0.02 | 0.02 | 79 | 1009.2 |
| 20260506022915 | 57 | 311 | 5.0 | 6.0 | 0.00 | 0.02 | 0.02 | 80 | 1009.4 |
| 20260506022413 | 58 | 143 | 4.0 | 6.0 | 0.00 | 0.02 | 0.02 | 81 | 1009.4 |
| 20260506021910 | 58 | 304 | 1.0 | 2.0 | 0.00 | 0.02 | 0.02 | 81 | 1009.1 |
| 20260506021407 | 58 | 13 | 3.0 | 3.0 | 0.00 | 0.02 | 0.02 | 81 | 1009.2 |
| 20260506020904 | 58 | 7 | 10.0 | 11.0 | 0.00 | 0.02 | 0.02 | 81 | 1008.8 |
| 20260506020402 | 59 | 358 | 7.0 | 9.0 | 0.00 | 0.02 | 0.02 | 83 | 1008.9 |
| 20260506015859 | 59 | 341 | 6.0 | 8.0 | 0.00 | 0.02 | 0.02 | 83 | 1008.9 |
| 20260506015356 | 59 | 329 | 5.0 | 6.0 | 0.00 | 0.02 | 0.02 | 83 | 1008.8 |
| 20260506014853 | 60 | 292 | 5.0 | 7.0 | 0.00 | 0.02 | 0.02 | 83 | 1008.8 |
| 20260506014350 | 60 | 9 | 7.0 | 8.0 | 0.00 | 0.02 | 0.02 | 82 | 1008.9 |
| 20260506013846 | 61 | 324 | 4.0 | 5.0 | 0.00 | 0.02 | 0.02 | 83 | 1008.5 |
| 20260506013344 | 61 | 326 | 8.0 | 9.0 | 0.00 | 0.02 | 0.02 | 83 | 1008.2 |
| 20260506012840 | 62 | 347 | 2.0 | 3.0 | 0.00 | 0.02 | 0.02 | 82 | 1008.2 |
| 20260506012337 | 62 | 31 | 4.0 | 5.0 | 0.00 | 0.02 | 0.02 | 82 | 1008.1 |
| 20260506011835 | 62 | 297 | 2.0 | 2.0 | 0.00 | 0.02 | 0.02 | 81 | 1008.2 |
| 20260506011331 | 62 | 201 | 1.0 | 1.0 | 0.00 | 0.02 | 0.02 | 81 | 1008.0 |
| 20260506010829 | 62 | 235 | 1.0 | 1.0 | 0.00 | 0.02 | 0.02 | 81 | 1008.1 |
| 20260506010327 | 62 | 256 | 0.0 | 0.0 | 0.00 | 0.02 | 0.02 | 81 | 1007.9 |
| 20260506005823 | 62 | 309 | 2.0 | 3.0 | 0.00 | 0.02 | 0.02 | 82 | 1007.9 |
| 20260506005320 | 62 | 302 | 1.0 | 1.0 | 0.00 | 0.02 | 0.02 | 83 | 1007.7 |
| 20260506004816 | 62 | 275 | 1.0 | 1.0 | 0.00 | 0.02 | 0.02 | 83 | 1007.7 |
| 20260506004314 | 62 | 290 | 1.0 | 1.0 | 0.00 | 0.02 | 0.02 | 83 | 1007.4 |
| 20260506003809 | 62 | 287 | 4.0 | 6.0 | 0.00 | 0.02 | 0.02 | 85 | 1007.4 |
| 20260506003306 | 61 | 285 | 3.0 | 3.0 | 0.00 | 0.02 | 0.02 | 86 | 1007.4 |
| 20260506002802 | 62 | 306 | 3.0 | 3.0 | 0.00 | 0.02 | 0.02 | 85 | 1007.3 |
| 20260506002259 | 62 | 271 | 2.0 | 2.0 | 0.00 | 0.02 | 0.02 | 84 | 1007.0 |
| 20260506001754 | 62 | 299 | 2.0 | 2.0 | 0.00 | 0.02 | 0.02 | 83 | 1006.8 |
| 20260506001252 | 63 | 260 | 0.0 | 0.0 | 0.00 | 0.02 | 0.02 | 82 | 1007.1 |
| 20260506000749 | 63 | 266 | 0.0 | 0.0 | 0.00 | 0.02 | 0.02 | 82 | 1006.6 |
| 20260506000247 | 63 | 266 | 0.0 | 1.0 | 0.00 | 0.02 | 0.02 | 81 | 1006.8 |
| 20260505235743 | 63 | 252 | 1.0 | 1.0 | 0.00 | 0.02 | 0.02 | 81 | 1006.9 |
| 20260505235241 | 63 | 227 | 3.0 | 3.0 | 0.00 | 0.02 | 0.02 | 81 | 1006.8 |
| 20260505234738 | 63 | 250 | 2.0 | 2.0 | 0.00 | 0.02 | 0.02 | 82 | 1006.7 |
| 20260505234235 | 63 | 251 | 0.0 | 0.0 | 0.00 | 0.02 | 0.02 | 82 | 1006.7 |
| 20260505233731 | 63 | 244 | 0.0 | 1.0 | 0.00 | 0.02 | 0.02 | 82 | 1006.8 |
| 20260505233230 | 64 | 259 | 1.0 | 1.0 | 0.00 | 0.02 | 0.02 | 81 | 1006.7 |
| 20260505232726 | 64 | 266 | 2.0 | 2.0 | 0.00 | 0.02 | 0.02 | 80 | 1006.6 |
| 20260505232224 | 64 | 237 | 2.0 | 2.0 | 0.00 | 0.02 | 0.02 | 81 | 1006.5 |
| 20260505231721 | 64 | 198 | 2.0 | 2.0 | 0.00 | 0.02 | 0.02 | 81 | 1006.6 |
| 20260505231220 | 64 | 218 | 1.0 | 2.0 | 0.00 | 0.02 | 0.02 | 80 | 1006.7 |
| 20260505230717 | 64 | 247 | 0.0 | 1.0 | 0.00 | 0.02 | 0.02 | 80 | 1006.4 |
| 20260505230214 | 64 | 282 | 1.0 | 2.0 | 0.05 | 0.02 | 0.02 | 79 | 1006.7 |
| 20260505225710 | 64 | 273 | 0.0 | 1.0 | 0.05 | 0.02 | 0.02 | 78 | 1006.8 |
| 20260505225207 | 65 | 277 | 0.0 | 1.0 | 0.00 | 0.01 | 0.01 | 76 | 1006.7 |
| 20260505224703 | 65 | 237 | 2.0 | 2.0 | 0.00 | 0.01 | 0.01 | 76 | 1006.6 |
| 20260505224201 | 65 | 224 | 7.0 | 8.0 | 0.00 | 0.01 | 0.01 | 76 | 1006.8 |
| 20260505223658 | 65 | 228 | 6.0 | 7.0 | 0.00 | 0.01 | 0.01 | 76 | 1006.9 |
| 20260505223154 | 65 | 239 | 4.0 | 5.0 | 0.00 | 0.01 | 0.01 | 76 | 1006.7 |
| 20260505222650 | 66 | 218 | 5.0 | 6.0 | 0.00 | 0.01 | 0.01 | 72 | 1006.6 |
| 20260505222146 | 67 | 219 | 2.0 | 2.0 | 0.00 | 0.01 | 0.01 | 70 | 1006.3 |
| 20260505221644 | 67 | 230 | 2.0 | 2.0 | 0.00 | 0.01 | 0.01 | 70 | 1006.2 |
| 20260505221140 | 67 | 224 | 4.0 | 6.0 | 0.00 | 0.01 | 0.01 | 71 | 1006.3 |
| 20260505220637 | 67 | 228 | 1.0 | 2.0 | 0.00 | 0.01 | 0.01 | 70 | 1006.1 |
| 20260505220135 | 68 | 238 | 4.0 | 5.0 | 0.00 | 0.01 | 0.01 | 69 | 1006.2 |
| 20260505215632 | 68 | 243 | 1.0 | 1.0 | 0.00 | 0.01 | 0.01 | 69 | 1005.9 |
| 20260505215130 | 68 | 256 | 0.0 | 1.0 | 0.00 | 0.01 | 0.01 | 67 | 1005.8 |
| 20260505214628 | 68 | 236 | 1.0 | 2.0 | 0.00 | 0.01 | 0.01 | 68 | 1005.8 |
| 20260505214125 | 68 | 197 | 5.0 | 6.0 | 0.00 | 0.01 | 0.01 | 68 | 1005.7 |
| 20260505213623 | 68 | 211 | 4.0 | 5.0 | 0.00 | 0.01 | 0.01 | 67 | 1005.9 |
| 20260505213119 | 68 | 230 | 2.0 | 2.0 | 0.00 | 0.01 | 0.01 | 69 | 1005.7 |
| 20260505212615 | 68 | 224 | 2.0 | 2.0 | 0.00 | 0.01 | 0.01 | 70 | 1005.9 |
| 20260505212113 | 67 | 255 | 0.0 | 0.0 | 0.00 | 0.01 | 0.01 | 71 | 1005.8 |
| 20260505211610 | 66 | 214 | 2.0 | 3.0 | 0.00 | 0.01 | 0.01 | 73 | 1005.7 |
| 20260505211107 | 66 | 231 | 2.0 | 2.0 | 0.00 | 0.01 | 0.01 | 74 | 1005.8 |
| 20260505210603 | 65 | 220 | 3.0 | 3.0 | 0.00 | 0.01 | 0.01 | 76 | 1006.0 |
| 20260505210100 | 64 | 141 | 1.0 | 2.0 | 0.00 | 0.01 | 0.01 | 77 | 1006.1 |
| 20260505205558 | 64 | 106 | 2.0 | 2.0 | 0.00 | 0.01 | 0.01 | 79 | 1006.2 |
| 20260505205055 | 63 | 101 | 3.0 | 3.0 | 0.00 | 0.01 | 0.01 | 81 | 1006.1 |
| 20260505204552 | 63 | 254 | 0.0 | 0.0 | 0.00 | 0.01 | 0.01 | 80 | 1006.2 |
| 20260505204050 | 63 | 211 | 1.0 | 1.0 | 0.00 | 0.01 | 0.01 | 81 | 1006.2 |
| 20260505203546 | 63 | 241 | 1.0 | 2.0 | 0.00 | 0.01 | 0.01 | 80 | 1006.6 |
| 20260505203043 | 63 | 262 | 3.0 | 5.0 | 0.00 | 0.01 | 0.01 | 80 | 1006.3 |
| 20260505202539 | 63 | 291 | 3.0 | 3.0 | 0.00 | 0.01 | 0.01 | 80 | 1006.5 |
| 20260505202035 | 62 | 245 | 2.0 | 2.0 | 0.00 | 0.01 | 0.01 | 81 | 1006.7 |
| 20260505201533 | 62 | 256 | 4.0 | 5.0 | 0.00 | 0.01 | 0.01 | 81 | 1006.7 |
| 20260505201030 | 62 | 235 | 5.0 | 9.0 | 0.00 | 0.01 | 0.01 | 80 | 1006.6 |
| 20260505200528 | 62 | 238 | 5.0 | 7.0 | 0.00 | 0.01 | 0.01 | 80 | 1007.0 |
| 20260505200024 | 62 | 266 | 8.0 | 14.0 | 0.07 | 0.01 | 0.01 | 80 | 1007.0 |
| 20260505195520 | 66 | 330 | 9.0 | 13.0 | 0.07 | 0.01 | 0.01 | 73 | 1006.6 |
| 20260505195018 | 74 | 190 | 11.0 | 17.0 | 0.00 | 0.00 | 0.00 | 45 | 1004.8 |
| 20260505194515 | 75 | 260 | 19.0 | 25.0 | 0.00 | 0.00 | 0.00 | 44 | 1004.6 |
| 20260505194010 | 76 | 233 | 7.0 | 11.0 | 0.00 | 0.00 | 0.00 | 41 | 1004.6 |
| 20260505193508 | 76 | 226 | 7.0 | 11.0 | 0.00 | 0.00 | 0.00 | 40 | 1004.3 |
| 20260505193005 | 76 | 226 | 13.0 | 17.0 | 0.00 | 0.00 | 0.00 | 41 | 1003.9 |
| 20260505192504 | 76 | 222 | 13.0 | 18.0 | 0.00 | 0.00 | 0.00 | 39 | 1003.8 |
| 20260505192001 | 76 | 252 | 7.0 | 8.0 | 0.00 | 0.00 | 0.00 | 42 | 1004.0 |
| 20260505191459 | 76 | 242 | 11.0 | 14.0 | 0.00 | 0.00 | 0.00 | 42 | 1004.0 |
| 20260505190956 | 76 | 228 | 10.0 | 15.0 | 0.00 | 0.00 | 0.00 | 45 | 1004.2 |
| 20260505190451 | 75 | 222 | 10.0 | 11.0 | 0.00 | 0.00 | 0.00 | 47 | 1004.2 |
| 20260505185947 | 75 | 239 | 14.0 | 16.0 | 0.00 | 0.00 | 0.00 | 47 | 1004.3 |
| 20260505185444 | 75 | 218 | 11.0 | 15.0 | 0.00 | 0.00 | 0.00 | 48 | 1004.3 |
| 20260505184940 | 75 | 251 | 14.0 | 18.0 | 0.00 | 0.00 | 0.00 | 47 | 1004.4 |
| 20260505184437 | 75 | 218 | 12.0 | 15.0 | 0.00 | 0.00 | 0.00 | 47 | 1004.5 |
| 20260505183933 | 75 | 271 | 14.0 | 17.0 | 0.00 | 0.00 | 0.00 | 46 | 1004.6 |
| 20260505183431 | 75 | 207 | 13.0 | 16.0 | 0.00 | 0.00 | 0.00 | 46 | 1005.2 |
| 20260505182927 | 75 | 209 | 17.0 | 18.0 | 0.00 | 0.00 | 0.00 | 47 | 1004.9 |
| 20260505182425 | 76 | 214 | 13.0 | 15.0 | 0.00 | 0.00 | 0.00 | 45 | 1005.1 |
| 20260505181920 | 77 | 278 | 14.0 | 24.0 | 0.00 | 0.00 | 0.00 | 47 | 1004.8 |
| 20260505181418 | 77 | 205 | 9.0 | 10.0 | 0.00 | 0.00 | 0.00 | 46 | 1004.9 |
| 20260505180915 | 76 | 214 | 12.0 | 17.0 | 0.00 | 0.00 | 0.00 | 46 | 1005.4 |
| 20260505180411 | 75 | 220 | 16.0 | 23.0 | 0.00 | 0.00 | 0.00 | 45 | 1005.2 |
| 20260505175908 | 75 | 202 | 27.0 | 30.0 | 0.00 | 0.00 | 0.00 | 46 | 1005.2 |
| 20260505175404 | 75 | 226 | 14.0 | 17.0 | 0.00 | 0.00 | 0.00 | 48 | 1005.8 |
| 20260505174901 | 75 | 242 | 15.0 | 20.0 | 0.00 | 0.00 | 0.00 | 47 | 1005.6 |
| 20260505174358 | 74 | 210 | 14.0 | 15.0 | 0.00 | 0.00 | 0.00 | 47 | 1005.4 |
| 20260505173854 | 74 | 320 | 7.0 | 9.0 | 0.00 | 0.00 | 0.00 | 47 | 1005.5 |
| 20260505173350 | 75 | 236 | 12.0 | 15.0 | 0.00 | 0.00 | 0.00 | 49 | 1005.2 |
| 20260505172847 | 74 | 230 | 12.0 | 16.0 | 0.00 | 0.00 | 0.00 | 47 | 1005.2 |
| 20260505172345 | 74 | 225 | 10.0 | 15.0 | 0.00 | 0.00 | 0.00 | 47 | 1005.4 |
| 20260505171844 | 74 | 229 | 14.0 | 16.0 | 0.00 | 0.00 | 0.00 | 47 | 1005.5 |
| 20260505171342 | 75 | 203 | 15.0 | 21.0 | 0.00 | 0.00 | 0.00 | 47 | 1005.2 |
| 20260505170838 | 75 | 212 | 16.0 | 21.0 | 0.00 | 0.00 | 0.00 | 47 | 1005.1 |
| 20260505170335 | 75 | 229 | 9.0 | 11.0 | 0.00 | 0.00 | 0.00 | 47 | 1004.8 |
| 20260505165831 | 75 | 211 | 16.0 | 20.0 | 0.00 | 0.00 | 0.00 | 46 | 1004.7 |
| 20260505165326 | 75 | 219 | 9.0 | 14.0 | 0.00 | 0.00 | 0.00 | 47 | 1005.0 |
| 20260505164822 | 75 | 225 | 15.0 | 18.0 | 0.00 | 0.00 | 0.00 | 47 | 1005.0 |
| 20260505164319 | 75 | 217 | 10.0 | 15.0 | 0.00 | 0.00 | 0.00 | 47 | 1005.2 |
| 20260505163818 | 75 | 192 | 12.0 | 16.0 | 0.00 | 0.00 | 0.00 | 45 | 1005.4 |
| 20260505163316 | 75 | 240 | 14.0 | 17.0 | 0.00 | 0.00 | 0.00 | 44 | 1005.6 |
| 20260505162814 | 76 | 220 | 15.0 | 18.0 | 0.00 | 0.00 | 0.00 | 45 | 1005.5 |
| 20260505162310 | 76 | 278 | 9.0 | 10.0 | 0.00 | 0.00 | 0.00 | 44 | 1005.2 |
| 20260505161807 | 76 | 240 | 10.0 | 14.0 | 0.00 | 0.00 | 0.00 | 45 | 1005.6 |
| 20260505161304 | 77 | 236 | 10.0 | 11.0 | 0.00 | 0.00 | 0.00 | 45 | 1005.7 |
| 20260505160802 | 77 | 214 | 12.0 | 15.0 | 0.00 | 0.00 | 0.00 | 45 | 1005.6 |
| 20260505160300 | 77 | 212 | 13.0 | 16.0 | 0.00 | 0.00 | 0.00 | 45 | 1005.7 |
| 20260505153239 | 74 | 180 | 15.0 | 17.0 | 0.00 | 0.00 | 0.00 | 47 | 1005.9 |
| 20260505152736 | 75 | 224 | 11.0 | 16.0 | 0.00 | 0.00 | 0.00 | 47 | 1006.0 |
| 20260505152232 | 74 | 239 | 13.0 | 20.0 | 0.00 | 0.00 | 0.00 | 46 | 1005.9 |
| 20260505151726 | 74 | 239 | 13.0 | 16.0 | 0.00 | 0.00 | 0.00 | 48 | 1005.6 |
| 20260505151224 | 74 | 236 | 15.0 | 20.0 | 0.00 | 0.00 | 0.00 | 47 | 1005.7 |
| 20260505150720 | 74 | 217 | 12.0 | 15.0 | 0.00 | 0.00 | 0.00 | 49 | 1005.7 |
| 20260505150217 | 74 | 243 | 13.0 | 15.0 | 0.00 | 0.00 | 0.00 | 47 | 1005.8 |
| 20260505140645 | 70 | 215 | 22.0 | 23.0 | 0.00 | 0.00 | 0.00 | 52 | 1006.4 |
| 20260505140142 | 70 | 264 | 12.0 | 15.0 | 0.00 | 0.00 | 0.00 | 53 | 1006.4 |
| 20260505130106 | 64 | 223 | 9.0 | 13.0 | 0.00 | 0.00 | 0.00 | 63 | 1006.9 |
| 20260505124555 | 62 | 213 | 7.0 | 8.0 | 0.00 | 0.00 | 0.00 | 68 | 1007.1 |
| 20260505124051 | 61 | 237 | 3.0 | 3.0 | 0.00 | 0.00 | 0.00 | 70 | 1007.3 |
| 20260505123548 | 61 | 227 | 5.0 | 7.0 | 0.00 | 0.00 | 0.00 | 70 | 1007.0 |
| 20260505123044 | 61 | 255 | 4.0 | 6.0 | 0.00 | 0.00 | 0.00 | 70 | 1007.1 |
| 20260505122541 | 61 | 222 | 5.0 | 6.0 | 0.00 | 0.00 | 0.00 | 70 | 1007.1 |
| 20260505122039 | 61 | 241 | 5.0 | 7.0 | 0.00 | 0.00 | 0.00 | 69 | 1007.0 |
| 20260505121535 | 61 | 257 | 0.0 | 1.0 | 0.00 | 0.00 | 0.00 | 69 | 1007.1 |
| 20260505121032 | 61 | 227 | 5.0 | 6.0 | 0.00 | 0.00 | 0.00 | 68 | 1006.8 |
| 20260505120528 | 61 | 240 | 1.0 | 2.0 | 0.00 | 0.00 | 0.00 | 67 | 1006.8 |
| 20260505120024 | 62 | 217 | 4.0 | 5.0 | 0.00 | 0.00 | 0.00 | 66 | 1006.9 |
| 20260505115518 | 61 | 191 | 9.0 | 10.0 | 0.00 | 0.00 | 0.00 | 68 | 1006.8 |
| 20260505115016 | 61 | 211 | 6.0 | 7.0 | 0.00 | 0.00 | 0.00 | 67 | 1006.9 |
| 20260505114513 | 62 | 213 | 9.0 | 14.0 | 0.00 | 0.00 | 0.00 | 64 | 1007.1 |
| 20260505114009 | 63 | 231 | 5.0 | 6.0 | 0.00 | 0.00 | 0.00 | 62 | 1007.1 |
| 20260505113506 | 63 | 209 | 8.0 | 10.0 | 0.00 | 0.00 | 0.00 | 59 | 1007.2 |
| 20260505113003 | 63 | 221 | 8.0 | 9.0 | 0.00 | 0.00 | 0.00 | 59 | 1007.1 |
| 20260505112459 | 63 | 206 | 8.0 | 10.0 | 0.00 | 0.00 | 0.00 | 60 | 1007.1 |
| 20260505111956 | 63 | 207 | 7.0 | 9.0 | 0.00 | 0.00 | 0.00 | 59 | 1007.1 |
| 20260505111450 | 62 | 220 | 6.0 | 7.0 | 0.00 | 0.00 | 0.00 | 60 | 1007.2 |
| 20260505110947 | 61 | 199 | 7.0 | 7.0 | 0.00 | 0.00 | 0.00 | 62 | 1007.1 |
| 20260505110443 | 61 | 249 | 0.0 | 0.0 | 0.00 | 0.00 | 0.00 | 64 | 1007.0 |
| 20260505101915 | 57 | 270 | 1.0 | 2.0 | 0.00 | 0.00 | 0.00 | 67 | 1006.6 |
| 20260505101414 | 57 | 256 | 0.0 | 0.0 | 0.00 | 0.00 | 0.00 | 67 | 1006.7 |
| 20260505100911 | 56 | 280 | 3.0 | 3.0 | 0.00 | 0.00 | 0.00 | 69 | 1006.4 |
| 20260505100408 | 55 | 284 | 2.0 | 2.0 | 0.00 | 0.00 | 0.00 | 70 | 1006.4 |
| 20260505095903 | 55 | 275 | 2.0 | 2.0 | 0.00 | 0.00 | 0.00 | 70 | 1006.5 |
| 20260505095401 | 56 | 279 | 1.0 | 2.0 | 0.00 | 0.00 | 0.00 | 69 | 1006.2 |
| 20260505094857 | 56 | 312 | 2.0 | 2.0 | 0.00 | 0.00 | 0.00 | 68 | 1006.1 |
| 20260505094354 | 57 | 291 | 1.0 | 1.0 | 0.00 | 0.00 | 0.00 | 67 | 1006.1 |
| 20260505093849 | 57 | 279 | 1.0 | 1.0 | 0.00 | 0.00 | 0.00 | 67 | 1006.2 |
| 20260505093347 | 57 | 253 | 0.0 | 1.0 | 0.00 | 0.00 | 0.00 | 67 | 1006.1 |
| 20260505092844 | 57 | 277 | 1.0 | 1.0 | 0.00 | 0.00 | 0.00 | 67 | 1006.0 |
| 20260505092342 | 57 | 246 | 1.0 | 1.0 | 0.00 | 0.00 | 0.00 | 67 | 1006.1 |
| 20260505091839 | 57 | 276 | 1.0 | 1.0 | 0.00 | 0.00 | 0.00 | 66 | 1006.2 |
| 20260505091337 | 57 | 260 | 0.0 | 0.0 | 0.00 | 0.00 | 0.00 | 65 | 1005.8 |
| 20260505090835 | 57 | 269 | 2.0 | 3.0 | 0.00 | 0.00 | 0.00 | 65 | 1005.9 |
| 20260505090333 | 57 | 314 | 1.0 | 1.0 | 0.00 | 0.00 | 0.00 | 65 | 1006.1 |
| 20260505085830 | 58 | 297 | 1.0 | 1.0 | 0.00 | 0.00 | 0.00 | 65 | 1005.9 |
| 20260505085328 | 58 | 273 | 1.0 | 1.0 | 0.00 | 0.00 | 0.00 | 65 | 1005.8 |
| 20260505084825 | 57 | 284 | 1.0 | 1.0 | 0.00 | 0.00 | 0.00 | 65 | 1006.0 |
| 20260505084324 | 57 | 312 | 1.0 | 2.0 | 0.00 | 0.00 | 0.00 | 65 | 1005.8 |
| 20260505083820 | 58 | 302 | 0.0 | 0.0 | 0.00 | 0.00 | 0.00 | 64 | 1005.8 |
| 20260505083318 | 59 | 303 | 1.0 | 1.0 | 0.00 | 0.00 | 0.00 | 62 | 1005.8 |
| 20260505082814 | 59 | 268 | 2.0 | 2.0 | 0.00 | 0.00 | 0.00 | 62 | 1005.9 |
| 20260505082311 | 59 | 300 | 0.0 | 1.0 | 0.00 | 0.00 | 0.00 | 62 | 1006.1 |
| 20260505081807 | 59 | 222 | 1.0 | 1.0 | 0.00 | 0.00 | 0.00 | 61 | 1006.1 |
| 20260505081304 | 60 | 215 | 1.0 | 1.0 | 0.00 | 0.00 | 0.00 | 61 | 1005.8 |
| 20260505080801 | 60 | 265 | 1.0 | 1.0 | 0.00 | 0.00 | 0.00 | 60 | 1006.1 |
| 20260505080256 | 60 | 233 | 3.0 | 5.0 | 0.00 | 0.00 | 0.00 | 59 | 1005.9 |
| 20260505075752 | 60 | 239 | 1.0 | 1.0 | 0.00 | 0.00 | 0.00 | 59 | 1005.9 |
| 20260505075249 | 60 | 247 | 1.0 | 1.0 | 0.00 | 0.00 | 0.00 | 60 | 1006.1 |
| 20260505074747 | 60 | 237 | 1.0 | 2.0 | 0.00 | 0.00 | 0.00 | 59 | 1006.0 |
| 20260505074244 | 60 | 267 | 1.0 | 1.0 | 0.00 | 0.00 | 0.00 | 59 | 1006.1 |
| 20260505073741 | 60 | 266 | 3.0 | 3.0 | 0.00 | 0.00 | 0.00 | 59 | 1005.9 |
| 20260505073239 | 60 | 307 | 1.0 | 1.0 | 0.00 | 0.00 | 0.00 | 58 | 1006.0 |
| 20260505072735 | 60 | 270 | 2.0 | 2.0 | 0.00 | 0.00 | 0.00 | 58 | 1006.2 |
| 20260505072232 | 60 | 241 | 3.0 | 3.0 | 0.00 | 0.00 | 0.00 | 59 | 1006.2 |
| 20260505071727 | 60 | 269 | 1.0 | 1.0 | 0.00 | 0.00 | 0.00 | 58 | 1006.2 |